AirNav   Everest Fuels
 
 903 users online  

43K Marion Municipal Airport
Marion, Kansas, USA

GOING TO MARION?


FAA INFORMATION EFFECTIVE 21 MAY 2020

Location

FAA Identifier: 43K
Lat/Long: 38-20-15.4000N 096-59-17.7000W
38-20.256667N 096-59.295000W
38.3376111,-96.9882500
(estimated)
Elevation: 1390 ft. / 424 m (estimated)
Variation: 07E (1985)
From city: 2 miles SE of MARION, KS
Time zone: UTC -5 (UTC -6 during Standard Time)
Zip code: 66861

Airport Operations

Airport use: Open to the public
Activation date: 12/1945
Control tower: no
ARTCC: KANSAS CITY CENTER
FSS: WICHITA FLIGHT SERVICE STATION
NOTAMs facility: ICT (NOTAM-D service available)
Attendance: UNATNDD
PHONE AVBL 24 HRS.
Wind indicator: yes
Segmented circle: no
Beacon: white-green (lighted land airport)
Operates sunset to sunrise.

Airport Communications

CTAF: 122.9

Nearby radio navigation aids

VOR radial/distance  VOR name  Freq  Var
FRIr183/(38.4)FORT RILEY VOR109.4006E

 
NDB name  Hdg/Dist  Freq  Var  ID
NEWTON033/21.228106EEWK . .-- -.-
HERINGTON195/22.940706EHRU .... .-. ..-

Airport Services

Fuel available: 100LL MOGAS
Parking: hangars and tiedowns
Airframe service: NONE
Powerplant service: NONE
Bottled oxygen: NONE
Bulk oxygen: NONE

Runway Information

Runway 17/35

Dimensions: 2573 x 40 ft. / 784 x 12 m
Surface: asphalt, in good condition
Runway edge lights: low intensity
Runway edge markings: RWY 35 ALIGNMENT NUMBERS FADED.
RUNWAY 17  RUNWAY 35
Latitude: 38-20.455545N38-20.031528N
Longitude: 096-59.227317W096-59.227317W
Elevation: 1382.0 ft.1378.0 ft.
Traffic pattern: leftleft
Runway heading: 173 magnetic, 180 true353 magnetic, 000 true
Markings: numbers only, in good conditionnumbers only, in good condition

Runway 3/21

Dimensions: 2745 x 95 ft. / 837 x 29 m
Surface: turf, in good condition
RY 03/21 IS SLIGHTLY ROUGH.
Runway edge markings: 03/21 THLDS & EDGES MKD WITH YELLOW PAINTED TIRES.
RUNWAY 3  RUNWAY 21
Traffic pattern: leftleft
Obstructions: 4 ft. fence
THE PROXIMITY OF THE FENCE TO THE RWY ESTABLISHES THE CONTROLLING OBSTRUCTION. THE 35' TO 40' TREES DIRECTLY BEHIND WOULD BE MORE OF A CONCERN FOR APPROACHING AIRCRAFT.
22 ft. pline, 735 ft. from runway, 170 ft. left of centerline, 33:1 slope to clear

Runway 13/31

Dimensions: 2722 x 50 ft. / 830 x 15 m
Surface: turf, in good condition
Runway edge markings: 13/31 THLD & EDGES MKD WITH YELLOW PAINTED TIRES.
RUNWAY 13  RUNWAY 31
Traffic pattern: leftleft
Obstructions: 4 ft. fence, 15 ft. from runwaynone

Runway 18/36

Dimensions: 2310 x 67 ft. / 704 x 20 m
Surface: turf, in good condition
Runway edge markings: RY 18/36 THLD DELINEATED WITH YELLOW PAINTED TIRES.
RUNWAY 18  RUNWAY 36
Latitude: 38-20.459450N38-20.079648N
Longitude: 096-59.352258W096-59.385003W
Elevation: 1380.0 ft.1378.0 ft.
Traffic pattern: leftleft
Runway heading: 177 magnetic, 184 true357 magnetic, 004 true
Obstructions: 4 ft. fence, 9 ft. from runway, 30 ft. left and right of centerline, 2:1 slope to clearnone

Airport Ownership and Management from official FAA records

Ownership: Publicly-owned
Owner: CITY OF MARION
208 EAST SANTA FE
MARION, KS 66861
Phone 620-382-3703
Manager: ROGER HOLTER
208 EAST SANTA FE
MARION, KS 66861
Phone 620-382-3703
MR.MAYFIELD IS CITY MGR. OF MARION KS.

Airport Operational Statistics

Aircraft based on the field: 17
Single engine airplanes: 16
Ultralights: 1
    
Aircraft operations: avg 25/day *
66% local general aviation
33% transient general aviation
<1% military
* for 12-month period ending 28 August 2019

Additional Remarks

A58-35 RWY 35 ROAD ABANDONED & IS GATED FM TRAFFIC. +4 FT FENCE; 70 FT FRM END OF RWY; BOTH SIDES OF RWY.
A58-17 +4' FENCE 5' FROM RWY END 30' L & R OF CNTRLEN; LOWERED AT RWY.
FOR CD CTC KANSAS CITY ARTCC AT 913-254-8508.

Instrument Procedures

There are no published instrument procedures at 43K.

Some nearby airports with instrument procedures:

KEWK - Newton City/County Airport (22 nm SW)
KHRU - Herington Regional Airport (23 nm N)
47K - Moundridge Municipal Airport (25 nm W)
KMPR - Mc Pherson Airport (33 nm W)
1K1 - Lloyd Stearman Field Airport (34 nm S)
 
Loc | Ops | Rwys | IFR | FBO | Links
Com | Nav | Svcs | Stats | Notes
Area around 43K (Marion Municipal Airport)
 
Road maps at: MapQuest Bing Google
 
Aerial photo
WARNING: Photo may not be current or correct
Aerial photo of 43K (Marion Municipal Airport)
Photo by Paul Hodson
Photo taken 21-Jan-2006
taken from a C182 from the northwest

Do you have a better or more recent aerial photo of Marion Municipal Airport that you would like to share? If so, please send us your photo.

 
Sectional chart

 
Airport distance calculator
Flying to Marion Municipal Airport? Find the distance to fly.

From to 43K

Sunrise and sunset
Times for 24-May-2020
 Local
(UTC-5)
 Zulu
(UTC)
Morning civil twilight05:4010:40
Sunrise06:1011:10
Sunset20:3901:39
Evening civil twilight21:1002:10

Current date and time
Zulu (UTC)  25-May-2020 02:38:24
Local (UTC-5)  24-May-2020 21:38:24
 
METAR
KEWK 
22nm SW 
250156Z AUTO 12013KT 10SM FEW041 SCT055 23/21 A2976 RMK AO2 SLP062 T02330211
K1K1 
34nm S 
250215Z AUTO 14008KT 10SM SCT029 OVC055 23/21 A2976 RMK AO2 T02340211
KEQA 
35nm S 
250215Z AUTO 13010KT 10SM SCT030 OVC060 25/21 A2976 RMK AO2
KAAO 
37nm S 
241654Z AUTO 14007KT 10SM FEW070 OVC090 21/17 A2983 RMK AO2 RAB18E44 SLP092 P0001 T02110167
KEMP 
37nm E 
250153Z AUTO 12007KT 10SM BKN026 OVC032 24/21 A2980 RMK AO2 SLP080 T02440211
KBEC 
40nm S 
250215Z AUTO 13008KT 10SM OVC055 25/20 A2975 RMK AO2 LTG DSNT W THRU N T02460196
K3AU 
40nm S 
250215Z AUTO 12008KT 10SM SCT034 SCT050 BKN060 24/21 A2975 RMK AO2
KSLN 
41nm NW 
250216Z 10014G20KT 10SM -TSRA FEW033 BKN040 BKN060 24/20 A2969 RMK AO2 LTG DSNT ALQDS RAB0159 TSB02 FRQ LTGICCG TS W MOV NE P0001 T02440200
KFRI 
43nm N 
250156Z 08007KT 4SM +TSRA BKN030 BKN037 OVC046 21/19 A2979 RMK AO2A RAB39 TSB43 SLP078 P0008 T02130187
K13K 
44nm SE 
250215Z AUTO 11008KT 10SM CLR 23/21 A2979 RMK AO2 T02300212
TAF
KSLN 
41nm NW 
250105Z 2501/2524 16010KT P6SM VCSH OVC045 TEMPO 2502/2506 VRB25G35KT 4SM TSRA OVC035CB FM250800 09007KT P6SM OVC045 FM251800 34008KT 5SM SHRA VCTS OVC035CB FM252100 33015G25KT P6SM VCSH OVC035
KHUT 
44nm W 
241722Z 2418/2518 VRB04KT P6SM VCSH OVC090 FM242000 16011KT P6SM BKN090 FM250000 15011KT P6SM VCTS BKN050CB FM250600 14010KT 6SM -SHRA VCTS OVC030CB TEMPO 2508/2512 3SM TSRA OVC025CB FM251400 11008KT 6SM SHRA VCTS OVC015CB FM251700 36005KT 5SM SHRA VCTS OVC012CB
KIAB 
45nm S 
241615Z 2416/2522 20012G18KT 9999 VCSH BKN080 OVC160 510032 510853 QNH2981INS BECMG 2420/2421 18012G18KT 9999 NSW BKN030 QNH2973INS TEMPO 2421/2502 17035G45KT 8000 -TSRA BKN010CB BECMG 2501/2502 19009KT 9999 FEW040 510022 510853 QNH2974INS BECMG 2507/2508 VRB06KT 8000 -SHRA VCTS OVC030CB 510103 QNH2980INS TEMPO 2508/2514 18025G35KT 4800 -TSRA OVC003CB BECMG 2513/2514 17010G15KT 6000 -SHRA VCTS OVC010CB 510343 QNH2983INS TEMPO 2514/2520 16020G30KT 4800 -TSRA OVC003CB BECMG 2520/2521 32012G18KT 80
KICT 
46nm SW 
242025Z 2420/2518 18014G20KT P6SM BKN090 FM250000 16014G20KT P6SM VCTS OVC050CB FM250600 15012KT 6SM -SHRA VCTS OVC030CB TEMPO 2508/2512 3SM TSRA OVC025CB FM251400 13010KT 6SM SHRA VCTS OVC015CB
KMHK 
50nm N 
250117Z 2501/2524 07012KT P6SM SKC FM250200 12008KT P6SM VCTS SCT050 BKN080CB TEMPO 2502/2504 3SM TSRA BKN040CB FM250400 14006KT P6SM -TSRA OVC040CB FM251000 14006KT P6SM VCTS BKN035CB
NOTAMs
Click for the latest NOTAMs
NOTAMs are issued by the DoD/FAA and will open in a separate window not controlled by AirNav.

 

 
 

Would you like to see your business listed on this page?

 If your business provides an interesting product or service to pilots, flight crews, aircraft, or users of the Marion Municipal Airport, you should consider listing it here.  To start the listing process, click on the button below
 
Add a business
 

Other Pages about Marion Municipal Airport

Update a link
 
Copyright © AirNav, LLC. All rights reserved. Privacy Policy  Contact